Regional Weather Roundup
Issued by NWS

Home | Current Version | Previous Version | Text Only | Print | Product List | Glossary On
Versions: 1 2 3 4 5 6 7 8 9 10 11 12 13 14 15 16 17 18 19 20 21 22 23 24 25 26 27 28 29 30 31 32 33 34 35 36 37 38 39 40 41 42 43 44 45 46 47 48 49 50
000
ASUS43 KFSD 240310
RWRSD

WEATHER ROUNDUP FOR SOUTH DAKOTA
NATIONAL WEATHER SERVICE SIOUX FALLS SD
1000 PM CDT TUE SEP 23 2014

NOTE: "FAIR" INDICATES FEW OR NO CLOUDS BELOW 12,000 FEET WITH NO
SIGNIFICANT WEATHER AND/OR OBSTRUCTIONS TO VISIBILITY.


SDZ001>005-009-010-012>017-240400-
NORTHWEST AND NORTH CENTRAL SOUTH DAKOTA

CITY           SKY/WX    TMP DP  RH WIND       PRES   REMARKS
BUFFALO          N/A     64  51  62 W7        29.89R
FAITH            N/A     60  57  89 SE14      29.93R
MOBRIDGE       CLOUDY    60  57  89 SE13      29.92S
$$

SDZ012>016-024>037-041>051-057-063-072>074-240400-
SOUTHWEST AND SOUTH CENTRAL SOUTH DAKOTA

CITY           SKY/WX    TMP DP  RH WIND       PRES   REMARKS
RAPID CTY ARPT CLEAR     59  52  77 CALM      29.97R
PIERRE         PTCLDY    61  57  87 SE9       29.92S
CUSTER         CLEAR     60  42  51 NW3       30.13R
ELLSWORTH AFB  CLEAR     64  54  70 W6        29.97R
PHILIP         CLEAR     61  55  81 E6        29.93R
PINE RIDGE     CLEAR     56  52  86 CALM      30.01R
WINNER         FAIR      65  59  81 S13       29.93R
$$

SDZ004>011-016>023-039-040-240400-
NORTHEAST SOUTH DAKOTA

CITY           SKY/WX    TMP DP  RH WIND       PRES   REMARKS
ABERDEEN       CLOUDY    59  57  93 SE8       29.98S FOG
WATERTOWN      CLOUDY    58  55  90 S14       30.01S
SISSETON         N/A     57  57 100 S10       30.01F
$$

SDZ017-020-022-023-036>040-048>070-240400-
SOUTHEAST SOUTH DAKOTA

CITY           SKY/WX    TMP DP  RH WIND       PRES   REMARKS
SIOUX FALLS    CLOUDY    62  53  72 S20G28    30.05R
HURON          MOCLDY    60  57  89 SE13G20   29.96F
CHAMBERLAIN    PTCLDY    59  57  92 SE9       29.94S
MITCHELL       MOCLDY    61  58  90 SE10      29.99S
YANKTON        CLOUDY    61  55  82 SE12      30.03R
$$

ABBREVIATIONS USED IN REMARKS
   TC - TEMPERATURE IN CELSIUS
  WCI - WIND CHILL INDEX
   HX - HEAT INDEX
  VSB - VISIBILITY




USA.gov is the U.S. government's official web portal to all federal, state and local government web resources and services.